Welcome to the New NWS' Forecast!
Most changes are behind the scenes, but click here for differences you might notice.

Regional Weather Roundup (RWR)

Issued by Gray - Portland, ME (GYX)

                            
572 
ASUS41 KGYX 231310
RWRGYX
WEATHER ROUNDUP FOR MAINE AND NEW HAMPSHIRE
NATIONAL WEATHER SERVICE GRAY ME
800 AM EST TUE JAN 23 2018

MEZ002-005-006-010-012-015-018-020-021-024-026-027-029-231400-
MAINE
  
CITY           SKY/WX    TMP DP  RH WIND       PRES   REMARKS
PORTLAND       FRZ DRZL  25  25 100 NW9       29.98F                  
SANFORD        MIX PCPN  23  22  96 N9        29.96F FOG              
BAR HARBOR     MIX PCPN  34  33  96 E12G20    30.03F                  
WISCASSET      CLOUDY    25  25 100 CALM      30.00R FOG              
ROCKLAND       MIX PCPN  33  32  96 NE7       29.99F FOG              
FRYEBURG       CLOUDY    24  24 100 NE3       29.98F FOG              
LEWISTONAUBURN LGT SNOW  21  19  93 N9        30.00R VSB 1            
AUGUSTA        FRZ RAIN  20  19  96 N7        30.00F FOG              
WATERVILLE     MIX PCPN  19  18  93 MISG      29.96F FOG              
BANGOR         FRZ RAIN  21  20  96 N9        30.04F FOG              
GREENVILLE       N/A     19  18  95 SE17      29.91F WCI   4          
MILLINOCKET    LGT SNOW  15  13  91 NE3       30.09F VSB 3/4          
HOULTON        MIX PCPN  16  12  84 CALM      30.10F FOG              
PRESQUE ISLE   SNOW      14  11  87 E9        30.12F VSB 1/4          
FRENCHVILLE    SNOW       8   5  87 E13G20    30.08F VSB 1/4 WCI  -8  
CARIBOU        HVY SNOW  14   9  80 E7        30.10F VSB 1/4          
$$

NHZ002-005-008-009-011-012-014-231400-
NEW HAMPSHIRE
  
CITY           SKY/WX    TMP DP  RH WIND       PRES   REMARKS
PORTSMOUTH     FRZ DRZL  25  24  95 CALM      29.93F VSB 1            
ROCHESTER      CLOUDY    25  24  96 N8        29.94F FOG              
NASHUA         LGT SNOW  28  27  96 NE3       29.93F VSB 3/4          
MANCHESTER     FRZ DRZL  27  26  96 NE5       29.92F VSB 3/4          
CONCORD        FOG       28  25  88 N6        29.93F VSB 3/4          
LACONIA        MIX PCPN  26  24  92 E13       29.93F FOG     WCI  15  
PLYMOUTH       MIX PCPN  27  26  96 CALM      29.93F                  
BERLIN         CLOUDY    31  29  92 SE8       29.87F                  
WHITEFIELD     CLOUDY    36  33  89 NE3       29.81F                  
JAFFREY        FOG       29  28  96 VRB5      29.86F VSB 1            
KEENE          MIX PCPN  31  30  96 N5        29.86F VSB 1            
LEBANON        FRZ RAIN  31  30  96 CALM      29.86F FOG              
MT WASHINGTON  FRZ RAIN  30  30 100 S54G61      N/A  VSB 0   WCI  11  
$$

VTZ005-007-008-231400-
VERMONT
  
CITY           SKY/WX    TMP DP  RH WIND       PRES   REMARKS
ST JOHNSBURY     N/A     32  32 100 MISG      29.80F                  
MONTPELIER     FRZ RAIN  31  31 100 S8        29.81F                  
BURLINGTON     CLOUDY    37  33  85 SE6       29.70F                  
$$

MAZ007-012-024-CTZ003-RIZ002-NYZ038-NYZ072-231400-
SOUTHERN NEW ENGLAND AND NY
  
CITY           SKY/WX    TMP DP  RH WIND       PRES   REMARKS
BOSTON         FOG       32  32 100 N5        29.94F VSB 1/4          
WORCESTER      FOG       28  27  96 NE8       29.85F VSB<1/4          
NANTUCKET      MOCLDY    47  47 100 S18       29.97S                  
PROVIDENCE     FOG       39  39 100 N6        29.90F VSB 1/16         
HARTFORD       LGT RAIN  34  34 100 N6        29.83F VSB 1/2          
ALBANY         RAIN      41  38  89 S12       29.75F FOG              
NEW YORK CITY  LGT RAIN  50  48  93 S15G24    29.75F FOG              
$$

ANZ081-ANZ082-ANZ150-NHZ014-MEZ023>029-231400-
COASTAL MARINE OBSERVATIONS
  
STATION/POSITION TIME  TEMP    WIND        PRES    WAVE
                       AIR SEA DIR/SP/G            HT/PER
                 (UTC) (F)     (DEG/KT/KT) (MB)    (FT/S)
MOUNT DESERT ROC 1300   44     110/ 26/ 29 1015.7F
MATINICUS ROCK   1300   44     140/ 14/ 14 1014.8F
ISLE OF SHOALS   1300   28      20/  2/  2 1013.5F
JEFFREYS LEDGE   1236      43                N/A     7/ 8
GEORGES BANK BUO 1150   45 51              1026.8    4/ 5
$$

.............KEY..............
   WCI - WIND CHILL
   TC  - TEMPERATURE IN CELSIUS
   VSB - VISIBILITY IN MILES
   HX  - HEAT INDEX
   FAIR- INDICATES FEW OR NO CLOUDS BELOW 12,000 FT, WITH NO 
         SIGNIFICANT WEATHER AND/OR OBSTRUCTIONS TO VISIBILITY.